Weather History for Ellensburg, WA

Change the Weather History Date:

Friday, June 21, 2013

  Actual Average (KYKM) Record (KYKM)
Temperature  
Mean Temperature 61 °F 65 °F  
Max Temperature 72 °F 81 °F 99 °F (1973)
Min Temperature 51 °F 49 °F 38 °F (1953)
Degree Days  
Heating Degree Days 4 3  
Month to date heating degree days 80  
Since 1 June heating degree days 80  
Since 1 July heating degree days 6024  
Cooling Degree Days 0 3  
Month to date cooling degree days 33  
Year to date cooling degree days 53  
Since 1 June cooling degree days 33  
Growing Degree Days 11 (Base 50)    
Moisture  
Dew Point 44 °F    
Average Humidity 56    
Maximum Humidity 74    
Minimum Humidity 36    
Precipitation  
Precipitation 0.00 in 0.02 in 0.52 in (1967)
Month to date precipitation 0.48  
Year to date precipitation 4.15  
Snow  
Snow 0.00 in 0.00 in 0.00 in (2002)
Month to date snowfall 0.0  
Year to date snowfall 8.6  
Since 1 July snowfall 21.6  
Snow Depth -    
Sea Level Pressure  
Sea Level Pressure 30.07 in    
Wind  
Wind Speed 10 mph (NW)    
Max Wind Speed 17 mph    
Max Gust Speed 21 mph    
Visibility 10 miles    
Events      
T = Trace of Precipitation, MM = Missing Value Source: NWS Daily Summary

Daily Weather History Graph

Daily Weather History Graph

Search for Another Location

Airport:

Trip Planner

Search our weather history database for the weather conditions in past years. The results will help you decide how hot, cold, wet, or windy it might be!

Date:

Astronomy

Jun. 21, 2013 Rise Set
Actual Time 5:06 AM PDT 9:01 PM PDT
Civil Twilight 4:26 AM PDT 9:41 PM PDT
Nautical Twilight 3:32 AM PDT 10:35 PM PDT
Astronomical Twilight 2:09 AM PDT 11:58 PM PDT
Moon 7:12 PM PDT (6/21) 3:32 AM PDT (6/21)
Length of Visible Light 17h 14m
Length of Day
15h 54m
Waxing Gibbous, 96% of the Moon is Illuminated
Jun 21
Waxing Gibbous
Jun 23
Full
Jun 29
Last Quarter
Jul 8
New
Jul 15
First Quarter

Hourly Weather History & Observations

Time (PDT) Temp. Dew Point Humidity Pressure Visibility Wind Dir Wind Speed Gust Speed Precip Events Conditions
12:53 AM 51.1 °F 43.0 °F 74% 30.06 in 10.0 mi NW 9.2 mph - N/A   Overcast
1:53 AM 51.1 °F 43.0 °F 74% 30.06 in 10.0 mi NW 9.2 mph - N/A   Overcast
2:53 AM 52.0 °F 44.1 °F 74% 30.06 in 10.0 mi WNW 10.4 mph - N/A   Overcast
3:53 AM 52.0 °F 44.1 °F 74% 30.04 in 10.0 mi NW 9.2 mph - N/A   Overcast
4:53 AM 51.1 °F 43.0 °F 74% 30.06 in 10.0 mi NNW 11.5 mph - N/A   Overcast
5:53 AM 53.1 °F 43.0 °F 69% 30.06 in 10.0 mi NW 12.7 mph - N/A   Overcast
6:53 AM 54.0 °F 43.0 °F 66% 30.07 in 10.0 mi NW 13.8 mph - N/A   Overcast
7:53 AM 59.0 °F 44.1 °F 58% 30.07 in 10.0 mi NW 15.0 mph - N/A   Overcast
8:53 AM 61.0 °F 45.0 °F 56% 30.08 in 10.0 mi NW 15.0 mph 20.7 mph N/A   Overcast
9:53 AM 63.0 °F 45.0 °F 52% 30.08 in 10.0 mi NNW 15.0 mph - N/A   Overcast
10:53 AM 64.9 °F 45.0 °F 48% 30.08 in 10.0 mi NW 6.9 mph - N/A   Overcast
11:53 AM 66.9 °F 45.0 °F 45% 30.08 in 10.0 mi NNW 10.4 mph - N/A   Overcast
12:53 PM 68.0 °F 44.1 °F 42% 30.09 in 10.0 mi East 8.1 mph - N/A   Overcast
1:53 PM 68.0 °F 44.1 °F 42% 30.08 in 10.0 mi Calm Calm - N/A   Overcast
2:53 PM 69.1 °F 44.1 °F 40% 30.08 in 10.0 mi East 3.5 mph - N/A   Overcast
3:53 PM 69.1 °F 43.0 °F 39% 30.08 in 10.0 mi West 3.5 mph - N/A   Overcast
4:53 PM 71.1 °F 44.1 °F 38% 30.07 in 10.0 mi NW 4.6 mph - N/A   Overcast
5:53 PM 71.1 °F 43.0 °F 36% 30.06 in 10.0 mi Variable 4.6 mph - N/A   Overcast
6:53 PM 70.0 °F 46.0 °F 42% 30.06 in 10.0 mi WNW 8.1 mph - N/A   Mostly Cloudy
7:53 PM 64.9 °F 46.0 °F 50% 30.06 in 10.0 mi NW 12.7 mph - N/A   Overcast
8:53 PM 63.0 °F 46.0 °F 54% 30.07 in 10.0 mi NW 9.2 mph - N/A   Overcast
9:53 PM 60.1 °F 46.0 °F 60% 30.09 in 10.0 mi NW 17.3 mph 20.7 mph N/A   Partly Cloudy
10:53 PM 57.9 °F 46.0 °F 65% 30.09 in 10.0 mi NW 12.7 mph - N/A   Partly Cloudy
11:53 PM 59.0 °F 46.0 °F 62% 30.09 in 10.0 mi NW 10.4 mph - N/A   Overcast